Weather History for Pineville, WV

Change the Weather History Date:

Monday, February 25, 2013

  Actual Average (KBKW) Record (KBKW)
Temperature  
Mean Temperature 40 °F 37 °F  
Max Temperature 55 °F 46 °F 70 °F (2000)
Min Temperature 25 °F 28 °F -5 °F (1967)
Degree Days  
Heating Degree Days 25 28  
Month to date heating degree days 773  
Since 1 July heating degree days 3917  
Cooling Degree Days 0 0  
Month to date cooling degree days 0  
Year to date cooling degree days 0  
Moisture  
Dew Point 27 °F    
Average Humidity 68    
Maximum Humidity 98    
Minimum Humidity 36    
Precipitation  
Precipitation 0.00 in 0.10 in 0.90 in (1894)
Month to date precipitation 2.45  
Year to date precipitation 5.26  
Snow  
Snow 0.00 in - - ()
Month to date snowfall  
Since 1 September snowfall  
Snow Depth -    
Sea Level Pressure  
Sea Level Pressure 30.08 in    
Wind  
Wind Speed - (North)    
Max Wind Speed -    
Max Gust Speed -    
Visibility 10 miles    
Events      
T = Trace of Precipitation, MM = Missing Value Source: NWS Daily Summary

Daily Weather History Graph

Daily Weather History Graph

Search for Another Location

Airport:

Trip Planner

Search our weather history database for the weather conditions in past years. The results will help you decide how hot, cold, wet, or windy it might be!

Date:

Astronomy

Feb. 25, 2013 Rise Set
Actual Time 7:02 AM EST 6:16 PM EST
Civil Twilight 6:36 AM EST 6:42 PM EST
Nautical Twilight 6:06 AM EST 7:13 PM EST
Astronomical Twilight 5:35 AM EST 7:43 PM EST
Moon 6:26 PM EST (2/25) 6:33 AM EST (2/25)
Length of Visible Light 12h 06m
Length of Day
11h 13m
Full, 100% of the Moon is Illuminated
Feb 25
Full
Feb 25
Full
Mar 4
Last Quarter
Mar 11
New
Mar 19
First Quarter

Hourly Weather History & Observations

Time (EST) Temp. Dew Point Humidity Pressure Visibility Wind Dir Wind Speed Gust Speed Precip Events Conditions
12:15 AM 29.3 °F 27.1 °F 92% 30.11 in 10.0 mi North - - N/A   Clear
12:35 AM 29.1 °F 26.6 °F 90% 30.11 in 10.0 mi North - - N/A   Clear
12:55 AM 28.9 °F 26.8 °F 92% 30.11 in 10.0 mi North - - N/A   Clear
1:15 AM 28.2 °F 26.4 °F 93% 30.12 in 10.0 mi North - - N/A   Clear
1:35 AM 28.2 °F 26.4 °F 93% 30.12 in 10.0 mi North - - N/A   Clear
1:55 AM 27.9 °F 26.2 °F 94% 30.13 in 10.0 mi North - - N/A   Clear
2:15 AM 27.5 °F 26.1 °F 94% 30.13 in 10.0 mi North - - N/A   Clear
2:35 AM 27.7 °F 26.6 °F 96% 30.13 in 10.0 mi North - - N/A   Clear
2:55 AM 29.5 °F 26.2 °F 88% 30.13 in 10.0 mi North - - N/A   Clear
3:15 AM 30.2 °F 25.7 °F 83% 30.14 in 10.0 mi North - - N/A   Clear
3:35 AM 28.4 °F 25.7 °F 90% 30.14 in 10.0 mi North - - N/A   Clear
3:55 AM 27.3 °F 25.7 °F 94% 30.13 in 10.0 mi North - - N/A   Clear
4:15 AM 26.4 °F 24.8 °F 94% 30.13 in 10.0 mi North - - N/A   Clear
4:35 AM 26.2 °F 24.8 °F 94% 30.13 in 10.0 mi North - - N/A   Clear
4:55 AM 26.4 °F 25.3 °F 96% 30.14 in 10.0 mi North - - N/A   Clear
5:15 AM 25.7 °F 24.8 °F 96% 30.14 in 10.0 mi North - - N/A   Clear
5:35 AM 25.7 °F 24.8 °F 96% 30.13 in 10.0 mi North - - N/A   Clear
5:55 AM 25.0 °F 24.1 °F 96% 30.13 in 10.0 mi North - - N/A   Clear
6:15 AM 25.5 °F 24.4 °F 96% 30.13 in 10.0 mi North - - N/A   Clear
6:35 AM 25.3 °F 24.6 °F 97% 30.13 in 10.0 mi North - - N/A   Clear
6:55 AM 25.2 °F 24.3 °F 96% 30.12 in 10.0 mi North - - N/A   Clear
7:15 AM 25.2 °F 24.6 °F 98% 30.14 in 10.0 mi North - - N/A   Clear
7:35 AM 25.0 °F 24.1 °F 96% 30.14 in 10.0 mi North - - N/A   Clear
7:55 AM 26.6 °F 25.7 °F 96% 30.16 in 10.0 mi North - - N/A   Clear
8:15 AM 28.2 °F 26.8 °F 94% 30.16 in 10.0 mi North - - N/A   Clear
8:35 AM 29.8 °F 26.8 °F 88% 30.16 in 10.0 mi North - - N/A   Clear
8:55 AM 30.9 °F 26.4 °F 83% 30.15 in 10.0 mi North - - N/A   Clear
9:15 AM 32.0 °F 26.6 °F 80% 30.15 in 10.0 mi North - - N/A   Clear
9:35 AM 32.9 °F 26.6 °F 78% 30.14 in 10.0 mi North - - N/A   Clear
9:55 AM 34.7 °F 27.0 °F 73% 30.14 in 10.0 mi North - - N/A   Clear
10:15 AM 36.9 °F 27.3 °F 68% 30.14 in 10.0 mi North - - N/A   Clear
10:35 AM 37.4 °F 27.5 °F 67% 30.14 in 10.0 mi North - - N/A   Clear
10:55 AM 38.7 °F 27.1 °F 63% 30.13 in 10.0 mi North - - N/A   Clear
11:15 AM 40.6 °F 27.3 °F 59% 30.14 in 10.0 mi North - - N/A   Clear
11:35 AM 41.7 °F 27.1 °F 56% 30.14 in 10.0 mi North - - N/A   Clear
11:55 AM 43.2 °F 27.0 °F 53% 30.12 in 10.0 mi North - - N/A   Clear
12:15 PM 43.9 °F 27.1 °F 52% 30.11 in 10.0 mi North - - N/A   Clear
12:35 PM 44.8 °F 27.0 °F 50% 30.10 in 10.0 mi North - - N/A   Clear
12:55 PM 46.6 °F 27.5 °F 47% 30.09 in 10.0 mi North - - N/A   Clear
1:15 PM 46.8 °F 26.4 °F 45% 30.08 in 10.0 mi North - - N/A   Clear
1:35 PM 48.0 °F 27.0 °F 44% 30.07 in 10.0 mi North - - N/A   Clear
1:55 PM 49.1 °F 26.4 °F 41% 30.05 in 10.0 mi North - - N/A   Clear
2:15 PM 49.8 °F 26.1 °F 40% 30.05 in 10.0 mi North - - N/A   Clear
2:35 PM 51.4 °F 26.8 °F 38% 30.05 in 10.0 mi North - - N/A   Clear
2:55 PM 52.9 °F 27.5 °F 38% 30.04 in 10.0 mi North - - N/A   Clear
3:15 PM 53.1 °F 27.1 °F 37% 30.03 in 10.0 mi North - - N/A   Clear
3:35 PM 54.1 °F 28.2 °F 37% 30.02 in 10.0 mi North - - N/A   Clear
3:55 PM 54.7 °F 28.0 °F 36% 30.03 in 10.0 mi North - - N/A   Clear
4:15 PM 55.2 °F 28.8 °F 36% 30.03 in 10.0 mi North - - N/A   Clear
4:35 PM 54.5 °F 28.0 °F 36% 30.02 in 10.0 mi North - - N/A   Clear
4:55 PM 52.7 °F 29.3 °F 41% 30.01 in 10.0 mi North - - N/A   Clear
5:15 PM 51.1 °F 30.6 °F 45% 30.01 in 10.0 mi North - - N/A   Clear
5:35 PM 51.1 °F 29.3 °F 43% 30.01 in 10.0 mi North - - N/A   Clear
5:55 PM 49.6 °F 29.5 °F 46% 30.02 in 10.0 mi North - - N/A   Clear
6:15 PM 48.7 °F 29.1 °F 47% 30.03 in 10.0 mi North - - N/A   Clear
6:35 PM 48.4 °F 28.6 °F 46% 30.03 in 10.0 mi North - - N/A   Clear
6:55 PM 47.8 °F 28.4 °F 47% 30.03 in 10.0 mi North - - N/A   Clear
7:15 PM 47.3 °F 28.4 °F 48% 30.03 in 10.0 mi North - - N/A   Clear
7:35 PM 44.1 °F 29.7 °F 57% 30.03 in 10.0 mi North - - N/A   Clear
7:55 PM 44.1 °F 29.1 °F 56% 30.02 in 10.0 mi North - - N/A   Clear
8:15 PM 44.4 °F 28.9 °F 55% 30.02 in 10.0 mi North - - N/A   Clear
8:35 PM 43.7 °F 28.9 °F 56% 30.02 in 10.0 mi North - - N/A   Clear
8:55 PM 43.0 °F 28.9 °F 58% 30.01 in 10.0 mi North - - N/A   Clear
9:15 PM 42.4 °F 28.6 °F 58% 30.00 in 10.0 mi North - - N/A   Clear
9:35 PM 41.9 °F 28.4 °F 59% 30.01 in 10.0 mi North - - N/A   Clear
9:55 PM 41.2 °F 28.4 °F 60% 30.02 in 10.0 mi North - - N/A   Clear
10:15 PM 40.8 °F 27.9 °F 60% 30.03 in 10.0 mi North - - N/A   Clear
10:35 PM 40.5 °F 27.9 °F 61% 30.02 in 10.0 mi North - - N/A   Clear
10:55 PM 40.3 °F 28.2 °F 62% 30.01 in 10.0 mi North - - N/A   Clear
11:15 PM 40.1 °F 27.9 °F 62% 30.00 in 10.0 mi North - - N/A   Clear
11:35 PM 40.1 °F 27.5 °F 61% 30.00 in 10.0 mi North - - N/A   Clear
11:55 PM 40.1 °F 27.3 °F 60% 30.02 in 10.0 mi North - - N/A   Clear